Time,TemperatureF,DewpointF,PressureIn,WindDirection,WindDirectionDegrees,WindSpeedMPH,WindSpeedGustMPH,Humidity,HourlyPrecipIn,Conditions,Clouds,dailyrainin,SoftwareType,DateUTC
2013-12-08 00:01:00,25.0,20.8,30.55,NW,318,0.0,0.0,84,0.00,,,0.00,Wunderground v.1.15,2013-12-08 05:01:00,
2013-12-08 00:02:00,25.0,20.8,30.55,NW,318,0.0,0.0,84,0.00,,,0.00,Wunderground v.1.15,2013-12-08 05:02:00,
2013-12-08 00:04:00,24.9,20.8,30.55,NW,318,0.0,0.0,84,0.00,,,0.00,Wunderground v.1.15,2013-12-08 05:04:00,
2013-12-08 00:06:00,24.9,21.0,30.55,NW,318,0.0,0.0,85,0.00,,,0.00,Wunderground v.1.15,2013-12-08 05:06:00,
2013-12-08 00:07:00,24.9,21.0,30.55,NW,318,0.0,0.0,85,0.00,,,0.00,Wunderground v.1.15,2013-12-08 05:07:00,
2013-12-08 00:12:00,24.3,20.4,30.55,NW,318,0.0,0.0,85,0.00,,,0.00,Wunderground v.1.15,2013-12-08 05:12:00,
2013-12-08 00:17:00,23.6,20.0,30.55,NW,318,0.0,0.0,86,0.00,,,0.00,Wunderground v.1.15,2013-12-08 05:17:00,
2013-12-08 00:23:00,22.9,19.6,30.55,NW,318,0.0,0.0,87,0.00,,,0.00,Wunderground v.1.15,2013-12-08 05:23:00,
2013-12-08 00:25:00,22.8,19.5,30.55,NW,318,0.0,0.0,87,0.00,,,0.00,Wunderground v.1.15,2013-12-08 05:25:00,
2013-12-08 00:31:00,22.6,19.6,30.54,NW,318,0.0,0.0,88,0.00,,,0.00,Wunderground v.1.15,2013-12-08 05:31:00,
2013-12-08 00:36:00,22.5,19.5,30.55,NW,318,0.0,2.0,88,0.00,,,0.00,Wunderground v.1.15,2013-12-08 05:36:00,
2013-12-08 00:42:00,22.6,19.8,30.55,NW,318,1.0,1.0,89,0.00,,,0.00,Wunderground v.1.15,2013-12-08 05:42:00,
2013-12-08 00:47:00,22.7,19.9,30.55,NW,318,0.0,1.0,89,0.00,,,0.00,Wunderground v.1.15,2013-12-08 05:47:00,
2013-12-08 00:53:00,22.8,19.8,30.55,NW,318,0.0,0.0,88,0.00,,,0.00,Wunderground v.1.15,2013-12-08 05:53:00,
2013-12-08 00:59:00,22.9,19.9,30.55,NW,318,0.0,2.0,88,0.00,,,0.00,Wunderground v.1.15,2013-12-08 05:59:00,
2013-12-08 01:04:00,22.8,20.0,30.55,NW,318,0.0,0.0,89,0.00,,,0.00,Wunderground v.1.15,2013-12-08 06:04:00,
2013-12-08 01:10:00,22.7,19.9,30.55,NW,318,0.0,0.0,89,0.00,,,0.00,Wunderground v.1.15,2013-12-08 06:10:00,
2013-12-08 01:16:00,22.5,19.7,30.55,NW,318,0.0,0.0,89,0.00,,,0.00,Wunderground v.1.15,2013-12-08 06:16:00,
2013-12-08 01:21:00,22.5,19.7,30.55,NW,318,0.0,0.0,89,0.00,,,0.00,Wunderground v.1.15,2013-12-08 06:21:00,
2013-12-08 01:26:00,22.4,19.6,30.54,NW,318,0.0,0.0,89,0.00,,,0.00,Wunderground v.1.15,2013-12-08 06:26:00,
2013-12-08 01:31:00,22.2,19.5,30.55,NW,318,0.0,0.0,89,0.00,,,0.00,Wunderground v.1.15,2013-12-08 06:31:00,
2013-12-08 01:36:00,22.1,19.6,30.56,NW,318,0.0,0.0,90,0.00,,,0.00,Wunderground v.1.15,2013-12-08 06:36:00,
2013-12-08 01:42:00,22.3,19.8,30.56,NW,318,0.0,0.0,90,0.00,,,0.00,Wunderground v.1.15,2013-12-08 06:42:00,
2013-12-08 01:47:00,22.1,19.6,30.56,NW,318,0.0,0.0,90,0.00,,,0.00,Wunderground v.1.15,2013-12-08 06:47:00,
2013-12-08 01:52:00,21.6,19.1,30.55,NW,318,0.0,0.0,90,0.00,,,0.00,Wunderground v.1.15,2013-12-08 06:52:00,
2013-12-08 01:58:00,21.9,19.7,30.55,NW,318,0.0,0.0,91,0.00,,,0.00,Wunderground v.1.15,2013-12-08 06:58:00,
2013-12-08 02:04:00,22.3,20.1,30.55,NW,318,0.0,0.0,91,0.00,,,0.00,Wunderground v.1.15,2013-12-08 07:04:00,
2013-12-08 02:09:00,22.6,20.4,30.56,NW,318,0.0,0.0,91,0.00,,,0.00,Wunderground v.1.15,2013-12-08 07:09:00,
2013-12-08 02:16:00,23.1,20.6,30.54,NW,318,0.0,0.0,90,0.00,,,0.00,Wunderground v.1.15,2013-12-08 07:16:00,
2013-12-08 02:21:00,23.4,20.6,30.55,NW,318,0.0,0.0,89,0.00,,,0.00,Wunderground v.1.15,2013-12-08 07:21:00,
2013-12-08 02:27:00,23.4,20.4,30.55,NW,318,0.0,0.0,88,0.00,,,0.00,Wunderground v.1.15,2013-12-08 07:27:00,
2013-12-08 02:32:00,23.5,20.2,30.56,NW,318,0.0,0.0,87,0.00,,,0.00,Wunderground v.1.15,2013-12-08 07:32:00,
2013-12-08 02:37:00,23.5,19.9,30.56,NW,318,0.0,0.0,86,0.00,,,0.00,Wunderground v.1.15,2013-12-08 07:37:00,
2013-12-08 02:43:00,23.7,21.7,30.57,NW,318,0.0,0.0,92,0.00,,,0.00,Wunderground v.1.15,2013-12-08 07:43:00,
2013-12-08 02:49:00,23.8,19.7,30.58,NW,318,0.0,0.0,84,0.00,,,0.00,Wunderground v.1.15,2013-12-08 07:49:00,
2013-12-08 02:55:00,23.6,19.5,30.57,NW,318,0.0,0.0,84,0.00,,,0.00,Wunderground v.1.15,2013-12-08 07:55:00,
2013-12-08 03:01:00,23.5,19.4,30.57,NW,318,0.0,0.0,84,0.00,,,0.00,Wunderground v.1.15,2013-12-08 08:01:00,
2013-12-08 03:06:00,23.5,19.1,30.56,NW,318,0.0,0.0,83,0.00,,,0.00,Wunderground v.1.15,2013-12-08 08:06:00,
2013-12-08 03:12:00,23.4,19.3,30.55,NW,318,0.0,0.0,84,0.00,,,0.00,Wunderground v.1.15,2013-12-08 08:12:00,
2013-12-08 03:19:00,23.5,19.4,30.55,NW,318,0.0,0.0,84,0.00,,,0.00,Wunderground v.1.15,2013-12-08 08:19:00,
2013-12-08 03:24:00,23.6,19.5,30.54,NW,318,0.0,1.0,84,0.00,,,0.00,Wunderground v.1.15,2013-12-08 08:24:00,
2013-12-08 03:29:00,23.6,19.2,30.55,NW,318,0.0,1.0,83,0.00,,,0.00,Wunderground v.1.15,2013-12-08 08:29:00,
2013-12-08 03:35:00,23.8,19.4,30.55,NW,318,0.0,0.0,83,0.00,,,0.00,Wunderground v.1.15,2013-12-08 08:35:00,
2013-12-08 03:40:00,23.8,19.4,30.55,NW,318,0.0,0.0,83,0.00,,,0.00,Wunderground v.1.15,2013-12-08 08:40:00,
2013-12-08 03:46:00,23.9,19.2,30.55,NW,318,0.0,0.0,82,0.00,,,0.00,Wunderground v.1.15,2013-12-08 08:46:00,
2013-12-08 03:51:00,23.9,19.2,30.54,NW,318,0.0,0.0,82,0.00,,,0.00,Wunderground v.1.15,2013-12-08 08:51:00,
2013-12-08 03:56:00,23.9,19.5,30.55,NW,318,0.0,0.0,83,0.00,,,0.00,Wunderground v.1.15,2013-12-08 08:56:00,
2013-12-08 04:02:00,24.1,19.4,30.56,NW,318,0.0,0.0,82,0.00,,,0.00,Wunderground v.1.15,2013-12-08 09:02:00,
2013-12-08 04:07:00,24.2,19.5,30.57,NW,318,0.0,1.0,82,0.00,,,0.00,Wunderground v.1.15,2013-12-08 09:07:00,
2013-12-08 04:13:00,24.2,19.2,30.56,NW,318,0.0,0.0,81,0.00,,,0.00,Wunderground v.1.15,2013-12-08 09:13:00,
2013-12-08 04:19:00,24.2,19.2,30.55,NW,318,0.0,2.0,81,0.00,,,0.00,Wunderground v.1.15,2013-12-08 09:19:00,
2013-12-08 04:24:00,24.1,19.1,30.55,NW,318,0.0,0.0,81,0.00,,,0.00,Wunderground v.1.15,2013-12-08 09:24:00,
2013-12-08 04:31:00,24.2,18.9,30.54,NW,318,0.0,0.0,80,0.00,,,0.00,Wunderground v.1.15,2013-12-08 09:31:00,
2013-12-08 04:36:00,24.2,19.2,30.54,NW,318,0.0,0.0,81,0.00,,,0.00,Wunderground v.1.15,2013-12-08 09:36:00,
2013-12-08 04:41:00,24.2,19.2,30.54,NW,318,0.0,0.0,81,0.00,,,0.00,Wunderground v.1.15,2013-12-08 09:41:00,
2013-12-08 04:47:00,24.2,19.2,30.55,NW,318,0.0,0.0,81,0.00,,,0.00,Wunderground v.1.15,2013-12-08 09:47:00,
2013-12-08 04:53:00,24.3,19.0,30.55,NW,318,0.0,0.0,80,0.00,,,0.00,Wunderground v.1.15,2013-12-08 09:53:00,
2013-12-08 04:58:00,24.4,19.1,30.56,NW,318,0.0,0.0,80,0.00,,,0.00,Wunderground v.1.15,2013-12-08 09:58:00,
2013-12-08 05:04:00,24.5,18.9,30.56,NW,318,0.0,1.0,79,0.00,,,0.00,Wunderground v.1.15,2013-12-08 10:04:00,
2013-12-08 05:09:00,24.5,18.9,30.55,NW,318,0.0,1.0,79,0.00,,,0.00,Wunderground v.1.15,2013-12-08 10:09:00,
2013-12-08 05:14:00,24.6,19.0,30.55,NW,318,0.0,0.0,79,0.00,,,0.00,Wunderground v.1.15,2013-12-08 10:14:00,
2013-12-08 05:20:00,24.7,18.8,30.56,NW,318,0.0,1.0,78,0.00,,,0.00,Wunderground v.1.15,2013-12-08 10:20:00,
2013-12-08 05:25:00,24.8,18.9,30.56,NW,318,0.0,0.0,78,0.00,,,0.00,Wunderground v.1.15,2013-12-08 10:25:00,
2013-12-08 05:31:00,24.8,18.9,30.58,NW,318,0.0,0.0,78,0.00,,,0.00,Wunderground v.1.15,2013-12-08 10:31:00,
2013-12-08 05:36:00,24.9,19.3,30.58,NW,318,0.0,0.0,79,0.00,,,0.00,Wunderground v.1.15,2013-12-08 10:36:00,
2013-12-08 05:41:00,24.9,19.0,30.58,NW,318,0.0,0.0,78,0.00,,,0.00,Wunderground v.1.15,2013-12-08 10:41:00,
2013-12-08 05:47:00,24.9,19.0,30.57,NW,318,0.0,0.0,78,0.00,,,0.00,Wunderground v.1.15,2013-12-08 10:47:00,
2013-12-08 05:53:00,25.0,18.8,30.58,NW,318,0.0,0.0,77,0.00,,,0.00,Wunderground v.1.15,2013-12-08 10:53:00,
2013-12-08 05:59:00,25.0,18.8,30.57,NW,318,0.0,0.0,77,0.00,,,0.00,Wunderground v.1.15,2013-12-08 10:59:00,
2013-12-08 06:05:00,25.1,19.2,30.57,NW,318,0.0,0.0,78,0.00,,,0.00,Wunderground v.1.15,2013-12-08 11:05:00,
2013-12-08 06:10:00,25.1,18.9,30.57,NW,318,0.0,0.0,77,0.00,,,0.00,Wunderground v.1.15,2013-12-08 11:10:00,
2013-12-08 06:16:00,25.1,18.9,30.58,NW,318,0.0,0.0,77,0.00,,,0.00,Wunderground v.1.15,2013-12-08 11:16:00,
2013-12-08 06:21:00,25.2,19.0,30.58,NW,318,0.0,0.0,77,0.00,,,0.00,Wunderground v.1.15,2013-12-08 11:21:00,
2013-12-08 06:27:00,25.2,18.7,30.58,NW,318,0.0,0.0,76,0.00,,,0.00,Wunderground v.1.15,2013-12-08 11:27:00,
2013-12-08 06:32:00,25.2,18.7,30.57,NW,318,0.0,0.0,76,0.00,,,0.00,Wunderground v.1.15,2013-12-08 11:32:00,
2013-12-08 06:37:00,25.2,19.0,30.57,NW,318,0.0,0.0,77,0.00,,,0.00,Wunderground v.1.15,2013-12-08 11:37:00,
2013-12-08 06:44:00,25.2,19.0,30.57,NW,318,0.0,0.0,77,0.00,,,0.00,Wunderground v.1.15,2013-12-08 11:44:00,
2013-12-08 06:49:00,25.2,19.0,30.57,NW,318,0.0,0.0,77,0.00,,,0.00,Wunderground v.1.15,2013-12-08 11:49:00,
2013-12-08 06:54:00,25.2,19.0,30.56,NW,318,0.0,0.0,77,0.00,,,0.00,Wunderground v.1.15,2013-12-08 11:54:00,
2013-12-08 07:01:00,25.2,19.3,30.56,NW,318,0.0,0.0,78,0.00,,,0.00,Wunderground v.1.15,2013-12-08 12:01:00,
2013-12-08 07:06:00,25.2,19.3,30.57,NW,318,0.0,0.0,78,0.00,,,0.00,Wunderground v.1.15,2013-12-08 12:06:00,
2013-12-08 07:12:00,25.2,19.0,30.56,NW,318,0.0,0.0,77,0.00,,,0.00,Wunderground v.1.15,2013-12-08 12:12:00,
2013-12-08 07:19:00,25.2,19.0,30.56,NW,318,0.0,0.0,77,0.00,,,0.00,Wunderground v.1.15,2013-12-08 12:19:00,
2013-12-08 07:24:00,25.3,19.4,30.56,NW,318,0.0,0.0,78,0.00,,,0.00,Wunderground v.1.15,2013-12-08 12:24:00,
2013-12-08 07:29:00,25.3,19.4,30.55,NW,318,0.0,0.0,78,0.00,,,0.00,Wunderground v.1.15,2013-12-08 12:29:00,
2013-12-08 07:34:00,25.3,19.1,30.54,NW,318,0.0,1.0,77,0.00,,,0.00,Wunderground v.1.15,2013-12-08 12:34:00,
2013-12-08 07:40:00,25.4,19.2,30.55,NW,318,0.0,1.0,77,0.00,,,0.00,Wunderground v.1.15,2013-12-08 12:40:00,
2013-12-08 07:46:00,25.4,19.2,30.55,NW,320,0.0,0.0,77,0.00,,,0.00,Wunderground v.1.15,2013-12-08 12:46:00,
2013-12-08 07:51:00,25.4,18.9,30.56,NW,320,0.0,0.0,76,0.00,,,0.00,Wunderground v.1.15,2013-12-08 12:51:00,
2013-12-08 07:56:00,25.4,18.6,30.57,NW,320,0.0,0.0,75,0.00,,,0.00,Wunderground v.1.15,2013-12-08 12:56:00,
2013-12-08 08:01:00,25.4,18.3,30.56,NW,320,0.0,0.0,74,0.00,,,0.00,Wunderground v.1.15,2013-12-08 13:01:00,
2013-12-08 08:07:00,25.5,18.7,30.55,NW,320,0.0,0.0,75,0.00,,,0.00,Wunderground v.1.15,2013-12-08 13:07:00,
2013-12-08 08:13:00,25.5,18.4,30.55,NW,320,0.0,0.0,74,0.00,,,0.00,Wunderground v.1.15,2013-12-08 13:13:00,
2013-12-08 08:19:00,25.6,18.5,30.55,NW,320,0.0,0.0,74,0.00,,,0.00,Wunderground v.1.15,2013-12-08 13:19:00,
2013-12-08 08:24:00,25.6,18.5,30.55,NW,320,0.0,0.0,74,0.00,,,0.00,Wunderground v.1.15,2013-12-08 13:24:00,
2013-12-08 08:29:00,25.6,18.5,30.54,NW,320,0.0,0.0,74,0.00,,,0.00,Wunderground v.1.15,2013-12-08 13:29:00,
2013-12-08 08:34:00,25.6,18.8,30.55,NW,320,0.0,2.0,75,0.00,,,0.00,Wunderground v.1.15,2013-12-08 13:34:00,
2013-12-08 08:40:00,25.6,19.1,30.55,NW,320,0.0,2.0,76,0.00,,,0.00,Wunderground v.1.15,2013-12-08 13:40:00,
2013-12-08 08:46:00,25.4,19.5,30.55,NW,320,0.0,0.0,78,0.00,,,0.00,Wunderground v.1.15,2013-12-08 13:46:00,
2013-12-08 08:51:00,24.9,19.9,30.56,NW,320,0.0,0.0,81,0.00,,,0.00,Wunderground v.1.15,2013-12-08 13:51:00,
2013-12-08 08:56:00,24.5,20.1,30.56,NW,320,0.0,0.0,83,0.00,,,0.00,Wunderground v.1.15,2013-12-08 13:56:00,
2013-12-08 09:02:00,24.2,20.3,30.54,NW,320,0.0,0.0,85,0.00,,,0.00,Wunderground v.1.15,2013-12-08 14:02:00,
2013-12-08 09:08:00,23.9,20.6,30.55,NW,320,0.0,0.0,87,0.00,,,0.00,Wunderground v.1.15,2013-12-08 14:08:00,
2013-12-08 09:15:00,23.7,20.7,30.56,NW,320,0.0,2.0,88,0.00,,,0.00,Wunderground v.1.15,2013-12-08 14:15:00,
2013-12-08 09:21:00,23.6,20.6,30.56,NW,320,0.0,0.0,88,0.00,,,0.00,Wunderground v.1.15,2013-12-08 14:21:00,
2013-12-08 09:26:00,23.5,20.7,30.58,NW,320,0.0,0.0,89,0.00,,,0.00,Wunderground v.1.15,2013-12-08 14:26:00,
2013-12-08 09:32:00,23.3,20.5,30.57,NW,320,0.0,0.0,89,0.00,,,0.00,Wunderground v.1.15,2013-12-08 14:32:00,
2013-12-08 09:37:00,23.3,20.8,30.57,NW,320,0.0,0.0,90,0.00,,,0.00,Wunderground v.1.15,2013-12-08 14:37:00,
2013-12-08 09:42:00,23.3,20.8,30.57,NW,320,0.0,0.0,90,0.00,,,0.00,Wunderground v.1.15,2013-12-08 14:42:00,
2013-12-08 09:47:00,23.3,20.8,30.56,NW,320,0.0,0.0,90,0.00,,,0.00,Wunderground v.1.15,2013-12-08 14:47:00,
2013-12-08 09:53:00,23.3,20.8,30.54,NW,320,0.0,0.0,90,0.00,,,0.00,Wunderground v.1.15,2013-12-08 14:53:00,
2013-12-08 09:58:00,23.2,20.7,30.55,NW,320,0.0,1.0,90,0.00,,,0.00,Wunderground v.1.15,2013-12-08 14:58:00,
2013-12-08 10:04:00,23.2,21.0,30.56,NW,320,0.0,0.0,91,0.00,,,0.00,Wunderground v.1.15,2013-12-08 15:04:00,
2013-12-08 10:10:00,23.2,21.0,30.56,NW,320,0.0,0.0,91,0.00,,,0.00,Wunderground v.1.15,2013-12-08 15:10:00,
2013-12-08 10:16:00,23.2,21.0,30.56,NW,320,0.0,0.0,91,0.00,,,0.00,Wunderground v.1.15,2013-12-08 15:16:00,
2013-12-08 10:21:00,23.2,21.0,30.55,NW,320,0.0,0.0,91,0.00,,,0.00,Wunderground v.1.15,2013-12-08 15:21:00,
2013-12-08 10:27:00,23.2,21.0,30.55,NW,320,0.0,0.0,91,0.00,,,0.00,Wunderground v.1.15,2013-12-08 15:27:00,
2013-12-08 10:32:00,23.1,20.9,30.56,NW,320,0.0,0.0,91,0.00,,,0.00,Wunderground v.1.15,2013-12-08 15:32:00,
2013-12-08 10:37:00,23.1,20.9,30.56,NW,320,0.0,0.0,91,0.00,,,0.00,Wunderground v.1.15,2013-12-08 15:37:00,
2013-12-08 10:42:00,23.1,20.9,30.57,NW,320,0.0,0.0,91,0.00,,,0.00,Wunderground v.1.15,2013-12-08 15:42:00,
2013-12-08 10:49:00,23.2,21.0,30.56,NW,320,0.0,0.0,91,0.00,,,0.00,Wunderground v.1.15,2013-12-08 15:49:00,
2013-12-08 10:54:00,23.3,21.1,30.56,NW,320,0.0,0.0,91,0.00,,,0.00,Wunderground v.1.15,2013-12-08 15:54:00,
2013-12-08 11:01:00,23.2,21.0,30.55,NW,320,0.0,0.0,91,0.00,,,0.00,Wunderground v.1.15,2013-12-08 16:01:00,
2013-12-08 11:06:00,23.2,21.0,30.54,NW,320,0.0,0.0,91,0.00,,,0.00,Wunderground v.1.15,2013-12-08 16:06:00,
2013-12-08 11:12:00,23.2,21.2,30.54,NW,320,0.0,0.0,92,0.00,,,0.00,Wunderground v.1.15,2013-12-08 16:12:00,
2013-12-08 11:17:00,23.2,21.2,30.55,NW,320,0.0,0.0,92,0.00,,,0.00,Wunderground v.1.15,2013-12-08 16:17:00,
2013-12-08 11:22:00,23.3,21.3,30.55,NW,320,0.0,0.0,92,0.00,,,0.00,Wunderground v.1.15,2013-12-08 16:22:00,
2013-12-08 11:28:00,23.3,21.3,30.54,NW,320,0.0,0.0,92,0.00,,,0.00,Wunderground v.1.15,2013-12-08 16:28:00,
2013-12-08 11:34:00,23.4,21.4,30.53,NW,320,0.0,0.0,92,0.00,,,0.00,Wunderground v.1.15,2013-12-08 16:34:00,
2013-12-08 11:39:00,23.4,21.4,30.53,NW,320,0.0,0.0,92,0.00,,,0.00,Wunderground v.1.15,2013-12-08 16:39:00,
2013-12-08 11:45:00,23.4,21.4,30.51,NW,320,0.0,0.0,92,0.00,,,0.00,Wunderground v.1.15,2013-12-08 16:45:00,
2013-12-08 11:51:00,23.4,21.4,30.52,NW,320,0.0,0.0,92,0.00,,,0.00,Wunderground v.1.15,2013-12-08 16:51:00,
2013-12-08 11:56:00,23.5,21.5,30.51,NW,320,0.0,0.0,92,0.00,,,0.00,Wunderground v.1.15,2013-12-08 16:56:00,
2013-12-08 12:02:00,23.5,21.5,30.52,NW,320,0.0,2.0,92,0.00,,,0.00,Wunderground v.1.15,2013-12-08 17:02:00,
2013-12-08 12:07:00,23.5,21.5,30.52,NW,320,0.0,2.0,92,0.00,,,0.00,Wunderground v.1.15,2013-12-08 17:07:00,
2013-12-08 12:12:00,23.6,21.6,30.51,NW,320,0.0,0.0,92,0.00,,,0.00,Wunderground v.1.15,2013-12-08 17:12:00,
2013-12-08 12:19:00,23.6,21.6,30.52,NW,320,0.0,0.0,92,0.00,,,0.00,Wunderground v.1.15,2013-12-08 17:19:00,
2013-12-08 12:24:00,23.6,21.6,30.51,NW,320,0.0,0.0,92,0.00,,,0.00,Wunderground v.1.15,2013-12-08 17:24:00,
2013-12-08 12:30:00,23.6,21.6,30.50,NW,320,0.0,1.0,92,0.00,,,0.00,Wunderground v.1.15,2013-12-08 17:30:00,
2013-12-08 12:36:00,23.7,21.7,30.49,NW,320,0.0,2.0,92,0.00,,,0.00,Wunderground v.1.15,2013-12-08 17:36:00,
2013-12-08 12:42:00,23.6,21.6,30.48,NW,320,0.0,1.0,92,0.00,,,0.00,Wunderground v.1.15,2013-12-08 17:42:00,
2013-12-08 12:48:00,23.8,21.8,30.49,NW,320,0.0,1.0,92,0.00,,,0.00,Wunderground v.1.15,2013-12-08 17:48:00,
2013-12-08 12:54:00,23.9,21.9,30.49,NW,320,0.0,0.0,92,0.00,,,0.00,Wunderground v.1.15,2013-12-08 17:54:00,
2013-12-08 13:00:00,24.0,22.0,30.48,NW,320,0.0,0.0,92,0.00,,,0.00,Wunderground v.1.15,2013-12-08 18:00:00,
2013-12-08 13:06:00,24.2,22.2,30.47,NW,320,0.0,0.0,92,0.00,,,0.00,Wunderground v.1.15,2013-12-08 18:06:00,
2013-12-08 13:11:00,24.4,22.4,30.46,NW,320,0.0,0.0,92,0.00,,,0.00,Wunderground v.1.15,2013-12-08 18:11:00,
2013-12-08 13:17:00,24.6,22.6,30.47,NW,320,0.0,1.0,92,0.00,,,0.00,Wunderground v.1.15,2013-12-08 18:17:00,
2013-12-08 13:24:00,24.7,22.4,30.45,NW,320,0.0,1.0,91,0.00,,,0.00,Wunderground v.1.15,2013-12-08 18:24:00,
2013-12-08 13:29:00,24.6,22.3,30.45,NW,320,0.0,2.0,91,0.00,,,0.00,Wunderground v.1.15,2013-12-08 18:29:00,
2013-12-08 13:34:00,24.6,22.3,30.47,NW,320,0.0,0.0,91,0.00,,,0.00,Wunderground v.1.15,2013-12-08 18:34:00,
2013-12-08 13:40:00,24.6,22.3,30.47,NW,320,0.0,0.0,91,0.00,,,0.00,Wunderground v.1.15,2013-12-08 18:40:00,
2013-12-08 13:46:00,24.6,22.1,30.46,NW,320,0.0,0.0,90,0.00,,,0.00,Wunderground v.1.15,2013-12-08 18:46:00,
2013-12-08 13:51:00,24.6,22.1,30.45,NW,320,0.0,1.0,90,0.00,,,0.00,Wunderground v.1.15,2013-12-08 18:51:00,
2013-12-08 13:56:00,24.6,22.1,30.43,NW,320,0.0,1.0,90,0.00,,,0.00,Wunderground v.1.15,2013-12-08 18:56:00,
2013-12-08 14:02:00,24.7,22.2,30.44,NW,321,0.0,2.0,90,0.00,,,0.00,Wunderground v.1.15,2013-12-08 19:02:00,
2013-12-08 14:08:00,24.7,22.2,30.45,NW,321,0.0,2.0,90,0.00,,,0.00,Wunderground v.1.15,2013-12-08 19:08:00,
2013-12-08 14:14:00,24.8,22.3,30.45,NW,321,0.0,0.0,90,0.00,,,0.00,Wunderground v.1.15,2013-12-08 19:14:00,
2013-12-08 14:20:00,24.7,22.2,30.47,NW,321,0.0,0.0,90,0.00,,,0.00,Wunderground v.1.15,2013-12-08 19:20:00,
2013-12-08 14:25:00,24.7,22.2,30.47,NW,321,0.0,0.0,90,0.00,,,0.00,Wunderground v.1.15,2013-12-08 19:25:00,
2013-12-08 14:31:00,24.6,22.1,30.47,NW,321,0.0,0.0,90,0.00,,,0.00,Wunderground v.1.15,2013-12-08 19:31:00,
2013-12-08 14:37:00,24.6,22.1,30.46,NW,321,0.0,0.0,90,0.00,,,0.00,Wunderground v.1.15,2013-12-08 19:37:00,
2013-12-08 14:42:00,24.6,22.1,30.45,NW,321,0.0,0.0,90,0.00,,,0.00,Wunderground v.1.15,2013-12-08 19:42:00,
2013-12-08 14:49:00,24.5,22.0,30.45,NW,321,0.0,1.0,90,0.00,,,0.00,Wunderground v.1.15,2013-12-08 19:49:00,
2013-12-08 14:56:00,24.4,21.9,30.45,NW,321,0.0,0.0,90,0.00,,,0.00,Wunderground v.1.15,2013-12-08 19:56:00,
2013-12-08 15:01:00,24.4,21.9,30.45,NW,321,0.0,0.0,90,0.00,,,0.00,Wunderground v.1.15,2013-12-08 20:01:00,
2013-12-08 15:07:00,24.4,21.9,30.45,NW,321,0.0,1.0,90,0.00,,,0.00,Wunderground v.1.15,2013-12-08 20:07:00,
2013-12-08 15:12:00,24.4,22.2,30.47,NW,321,0.0,0.0,91,0.00,,,0.00,Wunderground v.1.15,2013-12-08 20:12:00,
2013-12-08 15:19:00,24.4,22.2,30.46,NW,321,0.0,0.0,91,0.00,,,0.00,Wunderground v.1.15,2013-12-08 20:19:00,
2013-12-08 15:24:00,24.4,22.2,30.45,NW,321,0.0,1.0,91,0.00,,,0.00,Wunderground v.1.15,2013-12-08 20:24:00,
2013-12-08 15:31:00,24.4,22.2,30.43,NW,321,0.0,0.0,91,0.00,,,0.00,Wunderground v.1.15,2013-12-08 20:31:00,
2013-12-08 15:36:00,24.4,22.2,30.44,NW,321,0.0,0.0,91,0.00,,,0.00,Wunderground v.1.15,2013-12-08 20:36:00,
2013-12-08 15:42:00,24.4,22.2,30.44,NW,321,0.0,0.0,91,0.00,,,0.00,Wunderground v.1.15,2013-12-08 20:42:00,
2013-12-08 15:47:00,24.3,22.1,30.45,NW,321,0.0,0.0,91,0.00,,,0.00,Wunderground v.1.15,2013-12-08 20:47:00,
2013-12-08 15:53:00,24.4,22.2,30.45,NW,321,0.0,0.0,91,0.00,,,0.00,Wunderground v.1.15,2013-12-08 20:53:00,
2013-12-08 15:59:00,24.3,22.1,30.45,NW,321,0.0,2.0,91,0.00,,,0.00,Wunderground v.1.15,2013-12-08 20:59:00,
2013-12-08 16:04:00,24.3,22.1,30.46,NW,321,0.0,1.0,91,0.00,,,0.00,Wunderground v.1.15,2013-12-08 21:04:00,
2013-12-08 16:10:00,24.3,22.1,30.45,NW,321,0.0,0.0,91,0.00,,,0.00,Wunderground v.1.15,2013-12-08 21:10:00,
2013-12-08 16:15:00,24.3,22.1,30.45,NW,321,0.0,0.0,91,0.00,,,0.00,Wunderground v.1.15,2013-12-08 21:15:00,
2013-12-08 16:21:00,24.3,22.1,30.45,NW,321,0.0,0.0,91,0.00,,,0.00,Wunderground v.1.15,2013-12-08 21:21:00,
2013-12-08 16:26:00,24.3,22.3,30.45,NW,321,0.0,0.0,92,0.00,,,0.00,Wunderground v.1.15,2013-12-08 21:26:00,
2013-12-08 16:31:00,24.3,22.3,30.44,NW,321,0.0,0.0,92,0.00,,,0.00,Wunderground v.1.15,2013-12-08 21:31:00,
2013-12-08 16:37:00,24.2,22.2,30.44,NW,321,0.0,0.0,92,0.00,,,0.00,Wunderground v.1.15,2013-12-08 21:37:00,
2013-12-08 16:43:00,24.3,22.3,30.43,NW,321,0.0,0.0,92,0.00,,,0.00,Wunderground v.1.15,2013-12-08 21:43:00,
2013-12-08 16:50:00,24.3,22.3,30.44,NW,321,0.0,0.0,92,0.00,,,0.00,Wunderground v.1.15,2013-12-08 21:50:00,
2013-12-08 16:56:00,24.3,22.3,30.43,NW,321,0.0,0.0,92,0.00,,,0.00,Wunderground v.1.15,2013-12-08 21:56:00,
2013-12-08 17:02:00,24.2,22.2,30.44,NW,321,0.0,0.0,92,0.00,,,0.00,Wunderground v.1.15,2013-12-08 22:02:00,
2013-12-08 17:07:00,24.2,22.2,30.43,NW,321,0.0,0.0,92,0.00,,,0.00,Wunderground v.1.15,2013-12-08 22:07:00,
2013-12-08 17:13:00,24.2,22.2,30.42,NW,321,0.0,0.0,92,0.00,,,0.00,Wunderground v.1.15,2013-12-08 22:13:00,
2013-12-08 17:18:00,24.2,22.2,30.43,NW,321,0.0,0.0,92,0.00,,,0.00,Wunderground v.1.15,2013-12-08 22:18:00,
2013-12-08 17:24:00,24.1,22.1,30.42,NW,321,0.0,0.0,92,0.00,,,0.00,Wunderground v.1.15,2013-12-08 22:24:00,
2013-12-08 17:29:00,24.1,22.1,30.43,NW,321,0.0,0.0,92,0.00,,,0.00,Wunderground v.1.15,2013-12-08 22:29:00,
2013-12-08 17:35:00,24.1,22.1,30.43,NW,321,0.0,0.0,92,0.00,,,0.00,Wunderground v.1.15,2013-12-08 22:35:00,
2013-12-08 17:40:00,24.1,22.1,30.43,NW,321,0.0,0.0,92,0.00,,,0.00,Wunderground v.1.15,2013-12-08 22:40:00,
2013-12-08 17:46:00,24.1,22.1,30.42,NW,321,0.0,0.0,92,0.00,,,0.00,Wunderground v.1.15,2013-12-08 22:46:00,
2013-12-08 17:51:00,24.1,22.1,30.42,NW,321,0.0,0.0,92,0.00,,,0.00,Wunderground v.1.15,2013-12-08 22:51:00,
2013-12-08 17:56:00,24.1,22.1,30.42,NW,321,0.0,0.0,92,0.00,,,0.00,Wunderground v.1.15,2013-12-08 22:56:00,
2013-12-08 18:02:00,24.1,22.1,30.41,NW,321,0.0,0.0,92,0.00,,,0.00,Wunderground v.1.15,2013-12-08 23:02:00,
2013-12-08 18:09:00,24.1,22.1,30.42,NW,321,0.0,0.0,92,0.00,,,0.00,Wunderground v.1.15,2013-12-08 23:09:00,
2013-12-08 18:14:00,24.1,22.1,30.41,NW,321,0.0,0.0,92,0.00,,,0.00,Wunderground v.1.15,2013-12-08 23:14:00,
2013-12-08 18:20:00,24.0,22.0,30.41,NW,321,0.0,0.0,92,0.00,,,0.00,Wunderground v.1.15,2013-12-08 23:20:00,
2013-12-08 18:26:00,24.1,22.1,30.42,NW,321,0.0,0.0,92,0.00,,,0.00,Wunderground v.1.15,2013-12-08 23:26:00,
2013-12-08 18:31:00,24.1,22.1,30.41,NW,321,0.0,0.0,92,0.00,,,0.00,Wunderground v.1.15,2013-12-08 23:31:00,
2013-12-08 18:36:00,24.1,22.4,30.42,NW,321,0.0,0.0,93,0.00,,,0.00,Wunderground v.1.15,2013-12-08 23:36:00,
2013-12-08 18:44:00,24.0,22.0,30.42,NW,321,0.0,0.0,92,0.00,,,0.00,Wunderground v.1.15,2013-12-08 23:44:00,
2013-12-08 18:50:00,24.1,22.1,30.41,NW,321,0.0,0.0,92,0.00,,,0.00,Wunderground v.1.15,2013-12-08 23:50:00,
2013-12-08 18:56:00,24.1,22.1,30.42,NW,321,0.0,0.0,92,0.00,,,0.00,Wunderground v.1.15,2013-12-08 23:56:00,
2013-12-08 19:01:00,24.1,22.4,30.41,NW,321,0.0,0.0,93,0.00,,,0.00,Wunderground v.1.15,2013-12-09 00:01:00,
2013-12-08 19:06:00,24.0,22.3,30.40,NW,321,0.0,0.0,93,0.00,,,0.00,Wunderground v.1.15,2013-12-09 00:06:00,
2013-12-08 19:11:00,24.0,22.3,30.40,NW,321,0.0,0.0,93,0.00,,,0.00,Wunderground v.1.15,2013-12-09 00:11:00,
2013-12-08 19:17:00,24.1,22.4,30.41,NW,321,0.0,0.0,93,0.00,,,0.00,Wunderground v.1.15,2013-12-09 00:17:00,
2013-12-08 19:23:00,24.1,22.4,30.39,NW,321,0.0,0.0,93,0.00,,,0.00,Wunderground v.1.15,2013-12-09 00:23:00,
2013-12-08 19:29:00,24.1,22.4,30.41,NW,321,0.0,1.0,93,0.00,,,0.00,Wunderground v.1.15,2013-12-09 00:29:00,
2013-12-08 19:35:00,24.2,22.5,30.40,NW,321,0.0,0.0,93,0.00,,,0.00,Wunderground v.1.15,2013-12-09 00:35:00,
2013-12-08 19:41:00,24.2,22.5,30.40,NW,321,0.0,0.0,93,0.00,,,0.00,Wunderground v.1.15,2013-12-09 00:41:00,
2013-12-08 19:46:00,24.2,22.5,30.39,NW,321,0.0,0.0,93,0.00,,,0.00,Wunderground v.1.15,2013-12-09 00:46:00,
2013-12-08 19:52:00,24.2,22.5,30.39,NW,321,0.0,0.0,93,0.00,,,0.00,Wunderground v.1.15,2013-12-09 00:52:00,
2013-12-08 19:57:00,24.2,22.5,30.38,NW,321,0.0,0.0,93,0.00,,,0.00,Wunderground v.1.15,2013-12-09 00:57:00,
2013-12-08 20:05:00,24.2,22.5,30.38,NW,321,0.0,0.0,93,0.00,,,0.00,Wunderground v.1.15,2013-12-09 01:05:00,
2013-12-08 20:12:00,24.2,22.7,30.38,NW,321,0.0,0.0,94,0.00,,,0.00,Wunderground v.1.15,2013-12-09 01:12:00,
2013-12-08 20:18:00,24.2,22.7,30.38,NW,321,0.0,0.0,94,0.00,,,0.00,Wunderground v.1.15,2013-12-09 01:18:00,
2013-12-08 20:24:00,24.3,22.8,30.38,NW,321,0.0,0.0,94,0.00,,,0.00,Wunderground v.1.15,2013-12-09 01:24:00,
2013-12-08 20:29:00,24.3,22.8,30.37,NW,321,0.0,0.0,94,0.00,,,0.00,Wunderground v.1.15,2013-12-09 01:29:00,
2013-12-08 20:35:00,24.3,22.8,30.37,NW,321,0.0,0.0,94,0.00,,,0.00,Wunderground v.1.15,2013-12-09 01:35:00,
2013-12-08 20:41:00,24.3,22.8,30.38,NW,321,0.0,0.0,94,0.00,,,0.00,Wunderground v.1.15,2013-12-09 01:41:00,
2013-12-08 20:47:00,24.4,22.9,30.38,NW,321,0.0,0.0,94,0.00,,,0.00,Wunderground v.1.15,2013-12-09 01:47:00,
2013-12-08 20:53:00,24.4,22.9,30.37,NW,321,0.0,0.0,94,0.00,,,0.00,Wunderground v.1.15,2013-12-09 01:53:00,
2013-12-08 20:58:00,24.4,22.9,30.38,NW,321,0.0,0.0,94,0.00,,,0.00,Wunderground v.1.15,2013-12-09 01:58:00,
2013-12-08 21:04:00,24.5,23.0,30.39,NW,321,0.0,0.0,94,0.00,,,0.00,Wunderground v.1.15,2013-12-09 02:04:00,
2013-12-08 21:09:00,24.5,23.0,30.41,NW,321,0.0,0.0,94,0.00,,,0.00,Wunderground v.1.15,2013-12-09 02:09:00,
2013-12-08 21:14:00,24.4,22.9,30.40,NW,321,0.0,0.0,94,0.00,,,0.00,Wunderground v.1.15,2013-12-09 02:14:00,
2013-12-08 21:19:00,24.5,23.0,30.41,NW,321,0.0,0.0,94,0.00,,,0.00,Wunderground v.1.15,2013-12-09 02:19:00,
2013-12-08 21:25:00,24.7,23.2,30.40,NW,321,0.0,0.0,94,0.00,,,0.00,Wunderground v.1.15,2013-12-09 02:25:00,
2013-12-08 21:31:00,24.8,23.3,30.40,NW,321,0.0,0.0,94,0.00,,,0.00,Wunderground v.1.15,2013-12-09 02:31:00,
2013-12-08 21:36:00,25.0,23.5,30.37,NW,321,0.0,0.0,94,0.00,,,0.00,Wunderground v.1.15,2013-12-09 02:36:00,
2013-12-08 21:42:00,25.2,24.0,30.38,NW,321,0.0,1.0,95,0.00,,,0.00,Wunderground v.1.15,2013-12-09 02:42:00,
2013-12-08 21:47:00,25.3,24.1,30.36,NW,321,0.0,1.0,95,0.00,,,0.00,Wunderground v.1.15,2013-12-09 02:47:00,
2013-12-08 21:52:00,25.4,24.2,30.35,NW,321,0.0,0.0,95,0.00,,,0.00,Wunderground v.1.15,2013-12-09 02:52:00,
2013-12-08 21:58:00,25.6,24.4,30.34,NW,321,0.0,0.0,95,0.00,,,0.00,Wunderground v.1.15,2013-12-09 02:58:00,
2013-12-08 22:04:00,25.6,24.4,30.35,NW,321,0.0,0.0,95,0.00,,,0.00,Wunderground v.1.15,2013-12-09 03:04:00,
2013-12-08 22:10:00,25.6,24.4,30.34,NW,321,0.0,0.0,95,0.00,,,0.00,Wunderground v.1.15,2013-12-09 03:10:00,
2013-12-08 22:15:00,25.7,24.5,30.34,NW,321,0.0,0.0,95,0.00,,,0.00,Wunderground v.1.15,2013-12-09 03:15:00,
2013-12-08 22:21:00,25.7,24.5,30.34,NW,321,0.0,0.0,95,0.00,,,0.00,Wunderground v.1.15,2013-12-09 03:21:00,
2013-12-08 22:26:00,25.6,24.4,30.35,NW,321,0.0,0.0,95,0.00,,,0.00,Wunderground v.1.15,2013-12-09 03:26:00,
2013-12-08 22:32:00,25.6,24.1,30.34,NW,321,0.0,0.0,94,0.00,,,0.00,Wunderground v.1.15,2013-12-09 03:32:00,
2013-12-08 22:38:00,25.6,24.1,30.34,NW,321,0.0,0.0,94,0.00,,,0.00,Wunderground v.1.15,2013-12-09 03:38:00,
2013-12-08 22:43:00,25.6,24.4,30.34,NW,321,0.0,0.0,95,0.00,,,0.00,Wunderground v.1.15,2013-12-09 03:43:00,
2013-12-08 22:50:00,25.7,24.5,30.33,NW,321,0.0,0.0,95,0.00,,,0.00,Wunderground v.1.15,2013-12-09 03:50:00,
2013-12-08 22:55:00,25.8,24.6,30.34,NW,321,0.0,0.0,95,0.00,,,0.00,Wunderground v.1.15,2013-12-09 03:55:00,
2013-12-08 23:01:00,25.7,24.5,30.33,NW,321,0.0,0.0,95,0.00,,,0.00,Wunderground v.1.15,2013-12-09 04:01:00,
2013-12-08 23:06:00,25.7,24.5,30.35,NW,321,0.0,1.0,95,0.00,,,0.00,Wunderground v.1.15,2013-12-09 04:06:00,
2013-12-08 23:12:00,25.8,24.6,30.33,NW,321,0.0,0.0,95,0.00,,,0.00,Wunderground v.1.15,2013-12-09 04:12:00,
2013-12-08 23:17:00,25.8,24.6,30.31,NW,321,0.0,0.0,95,0.00,,,0.00,Wunderground v.1.15,2013-12-09 04:17:00,
2013-12-08 23:23:00,26.0,24.8,30.32,NW,321,0.0,0.0,95,0.00,,,0.00,Wunderground v.1.15,2013-12-09 04:23:00,
2013-12-08 23:28:00,26.1,24.9,30.32,NW,321,0.0,0.0,95,0.00,,,0.00,Wunderground v.1.15,2013-12-09 04:28:00,
2013-12-08 23:34:00,26.3,25.1,30.33,NW,321,0.0,0.0,95,0.00,,,0.00,Wunderground v.1.15,2013-12-09 04:34:00,
2013-12-08 23:41:00,26.4,25.2,30.33,NW,321,0.0,0.0,95,0.00,,,0.00,Wunderground v.1.15,2013-12-09 04:41:00,
2013-12-08 23:46:00,26.5,25.3,30.32,NW,321,0.0,0.0,95,0.00,,,0.00,Wunderground v.1.15,2013-12-09 04:46:00,
2013-12-08 23:51:00,26.6,25.4,30.33,NW,321,0.0,0.0,95,0.00,,,0.00,Wunderground v.1.15,2013-12-09 04:51:00,
2013-12-08 23:57:00,26.8,25.6,30.31,NW,321,0.0,0.0,95,0.00,,,0.00,Wunderground v.1.15,2013-12-09 04:57:00,